Regional Weather Roundup
Issued by NWS

Home | Current Version | Previous Version | Text Only | Print | Product List | Glossary Off
Versions: 1 2 3 4 5 6 7 8 9 10 11 12 13 14 15 16 17 18 19 20 21 22 23 24 25 26 27 28 29 30 31 32 33 34 35 36 37 38 39 40 41 42 43 44 45 46 47 48 49 50

000
ASUS43 KBIS 290010
RWRND

NORTH DAKOTA REGIONAL WEATHER ROUNDUP
NATIONAL WEATHER SERVICE BISMARCK ND
700 PM CDT TUE MAR 28 2017

NOTE: "FAIR" INDICATES FEW OR NO CLOUDS BELOW 12,000 FEET WITH NO
SIGNIFICANT WEATHER AND/OR OBSTRUCTIONS TO VISIBILITY.


NDZ001>003-009>011-017-290100-
NORTHWEST NORTH DAKOTA

CITY           SKY/WX    TMP DP  RH WIND       PRES   REMARKS
WILLISTON      LGT RAIN  45  42  89 W9        30.10R FOG
6HR MIN TEMP:  45; 6HR MAX TEMP:  58; 6HR PCP: TRACE;

MINOT          PTSUNNY   50  43  77 E12       30.08R
MINOT AFB      PTSUNNY   47  41  81 SE13      30.07S
$$

NDZ018>021-031>035-040>046-290100-
SOUTHWEST NORTH DAKOTA

CITY           SKY/WX    TMP DP  RH WIND       PRES   REMARKS
BISMARCK       FAIR      60  36  40 S13       30.10R
6HR MIN TEMP:  50; 6HR MAX TEMP:  63;

DICKINSON      PTSUNNY   57  33  40 SE15G22   30.02R
GARRISON         N/A     54  38  54 SE12      30.06S
6HR MIN TEMP:  40; 6HR MAX TEMP:  58;

HETTINGER ARPT CLOUDY    53  40  61 S8        30.09R
$$

NDZ004>008-012>016-024-026-027-054-290100-
NORTHEAST NORTH DAKOTA

CITY           SKY/WX    TMP DP  RH WIND       PRES   REMARKS
GRAND FORKS    MOCLDY    51  43  74 NE7       30.18R
GRND FRKS AFB  PTCLDY    49  43  80 N5        30.19R
DEVILS LAKE    FAIR      48  40  73 E13       30.17R
$$

NDZ022-023-025-028>030-036>039-047>053-290100-
SOUTHEAST NORTH DAKOTA

CITY           SKY/WX    TMP DP  RH WIND       PRES   REMARKS
FARGO          PTCLDY    56  39  53 NE5       30.16R
6HR MIN TEMP:  49; 6HR MAX TEMP:  59;

JAMESTOWN      FAIR      51  41  68 E7        30.15R
$$




USA.gov is the U.S. government's official web portal to all federal, state and local government web resources and services.